DLH239 LROP-LRCL

Flight info

Callsign DLH239
Flight time N/A
Altitude 28000
Route BUKEL1M/26L BUKEL DCT EDETA EDETA1X
Aircraft A320/M-VGD/A

Departure

Time N/A
Airport Bucharest Henri Coandă International Airport (LROP)

Arrival

Time 2026-04-24 19:02
Airport Avram Iancu Cluj International Airport (LRCL)
Time Latitude Longitude Altitude Speed Heading
2026-04-24 18:54 46.58855 24.17568 8480 ft 320 kts 325°
2026-04-24 18:55 46.62633 24.13885 5511 ft 332 kts 326°
2026-04-24 18:55 46.64559 24.12005 4155 ft 333 kts 326°
2026-04-24 18:55 46.66433 24.10175 3517 ft 313 kts 326°
2026-04-24 18:56 46.68161 24.08483 3251 ft 285 kts 326°
2026-04-24 18:56 46.69727 24.06948 3119 ft 258 kts 326°
2026-04-24 18:56 46.71190 24.05514 3009 ft 251 kts 326°
2026-04-24 18:56 46.72631 24.04100 3018 ft 249 kts 326°
2026-04-24 18:57 46.74061 24.02698 3013 ft 247 kts 326°
2026-04-24 18:57 46.75478 24.01307 3012 ft 244 kts 326°
2026-04-24 18:57 46.76881 23.99923 3014 ft 243 kts 326°
2026-04-24 18:57 46.78261 23.98559 3004 ft 230 kts 326°
2026-04-24 18:58 46.79512 23.97321 3006 ft 209 kts 326°
2026-04-24 18:58 46.80711 23.96137 3004 ft 206 kts 326°
2026-04-24 18:58 46.81847 23.95018 3009 ft 191 kts 326°
2026-04-24 18:58 46.82861 23.93823 3003 ft 186 kts 310°
2026-04-24 18:59 46.83479 23.92176 3017 ft 187 kts 288°
2026-04-24 18:59 46.83592 23.90284 3001 ft 190 kts 265°
2026-04-24 18:59 46.83235 23.88420 3011 ft 191 kts 254°
2026-04-24 18:59 46.82819 23.86580 3015 ft 191 kts 254°
2026-04-24 19:00 46.82404 23.84730 3005 ft 192 kts 255°
2026-04-24 19:00 46.81990 23.82882 3012 ft 192 kts 255°
2026-04-24 19:00 46.81577 23.81038 2959 ft 192 kts 255°
2026-04-24 19:00 46.81127 23.79136 2282 ft 207 kts 251°
2026-04-24 19:01 46.80660 23.77207 2074 ft 197 kts 255°
2026-04-24 19:01 46.80274 23.75327 1871 ft 187 kts 253°
2026-04-24 19:01 46.79897 23.73585 1638 ft 172 kts 253°
2026-04-24 19:01 46.79551 23.72027 1413 ft 152 kts 252°
2026-04-24 19:02 46.79340 23.71085 1276 ft 144 kts 252°
2026-04-24 19:02 46.78936 23.69282 1049 ft 136 kts 252°
2026-04-24 19:02 46.78677 23.68117 1033 ft 80 kts 252°
2026-04-24 19:02 46.78577 23.67655 1036 ft 39 kts 252°
2026-04-24 19:03 46.78505 23.67331 1037 ft 25 kts 251°
2026-04-24 19:03 46.78434 23.67188 1039 ft 16 kts 186°
2026-04-24 19:03 46.78360 23.67258 1038 ft 10 kts 126°
2026-04-24 19:03 46.78349 23.67410 1037 ft 18 kts 81°
2026-04-24 19:04 46.78375 23.67588 1036 ft 19 kts 78°
2026-04-24 19:04 46.78400 23.67772 1035 ft 19 kts 79°
2026-04-24 19:04 46.78426 23.67967 1034 ft 20 kts 79°
2026-04-24 19:04 46.78456 23.68184 1033 ft 23 kts 78°
2026-04-24 19:05 46.78488 23.68417 1031 ft 25 kts 78°
2026-04-24 19:05 46.78507 23.68620 1030 ft 13 kts 117°
2026-04-24 19:05 46.78437 23.68655 1030 ft 9 kts 171°
2026-04-24 19:05 46.78381 23.68674 1030 ft 7 kts 154°
2026-04-24 19:06 46.78372 23.68735 1030 ft 6 kts 82°
2026-04-24 19:06 46.78349 23.68763 1030 ft 4 kts 169°
2026-04-24 19:06 46.78324 23.68767 1026 ft 3 kts 175°
2026-04-24 19:06 46.78323 23.68767 1026 ft 0 kts 175°
2026-04-24 19:08 46.78318 23.68784 1030 ft 0 kts 95°